Waarnemingen

Advertentie
Mijn weer
Asturias/Aviles, Spanje (8011): temperatuur & dauwpunt: 08.08.2020 06:00:00 - 14.08.2020 06:00:00 (CEST)Asturias/Aviles, Spanje (8011): windsnelheid: 08.08.2020 06:00:00 - 14.08.2020 06:00:00 (CEST)Asturias/Aviles, Spanje (8011): windrichting: 08.08.2020 06:00:00 - 14.08.2020 06:00:00 (CEST)Asturias/Aviles, Spanje (8011): luchtdruk: 08.08.2020 06:00:00 - 14.08.2020 06:00:00 (CEST)Asturias/Aviles, Spanje (8011): zicht: 08.08.2020 06:00:00 - 14.08.2020 06:00:00 (CEST)
Datum & Tijd tt [°C] td [°C] ff [km/u] ff [kn] dd ppp [hPa] vv [km]
14.08.2020 06:00:00 16,0 16,0 0 0 N 1017,5 -
14.08.2020 05:00:00 16,8 16,3 11 6 ZZW 1017,6 -
14.08.2020 04:00:00 16,6 16,4 11 6 ZZW 1017,8 -
14.08.2020 03:00:00 16,7 16,4 8 4 ZZW 1018,2 -
14.08.2020 02:00:00 17,4 15,9 9 5 ZZO 1018,7 -
14.08.2020 01:00:00 17,5 17,0 9 5 ZO 1019,0 -
14.08.2020 00:00:00 17,8 17,0 4 2 OZO 1019,3 -
13.08.2020 23:00:00 17,6 16,7 0 0 N 1019,3 10
13.08.2020 22:00:00 18,3 16,8 0 0 N 1019,1 -
13.08.2020 21:00:00 19,1 15,8 2 1 NNW 1018,9 -
13.08.2020 20:00:00 19,8 16,3 4 2 NW 1018,5 10
13.08.2020 19:00:00 20,3 15,9 8 4 NW 1018,4 -
13.08.2020 18:00:00 21,3 15,4 11 6 NW 1018,3 -
13.08.2020 17:00:00 21,3 14,1 11 6 NW 1018,4 12
13.08.2020 16:00:00 21,8 16,2 13 7 NW 1018,5 -
13.08.2020 15:00:00 21,3 15,4 13 7 NW 1018,6 -
13.08.2020 14:00:00 21,6 16,7 18 10 WNW 1018,6 12
13.08.2020 13:00:00 21,8 15,6 16 9 WNW 1018,5 -
13.08.2020 12:00:00 19,9 14,7 18 10 WNW 1018,3 -
13.08.2020 11:00:00 20,0 14,9 22 12 WNW 1017,9 12
13.08.2020 10:00:00 18,6 15,2 16 9 W 1017,7 -
13.08.2020 09:00:00 18,2 15,1 15 8 W 1017,6 -
13.08.2020 08:00:00 17,2 14,9 15 8 WZW 1017,2 10
13.08.2020 07:00:00 16,6 15,3 11 6 WZW 1016,9 -
13.08.2020 06:00:00 16,6 15,4 15 8 WZW 1016,9 -
13.08.2020 05:00:00 16,2 16,2 22 12 WZW 1017,2 -
13.08.2020 04:00:00 17,2 15,2 15 8 W 1016,9 -
13.08.2020 03:00:00 17,0 15,5 13 7 WZW 1017,2 -
13.08.2020 02:00:00 17,2 15,2 13 7 WZW 1017,3 -
13.08.2020 01:00:00 17,6 15,0 22 12 W 1017,1 -
13.08.2020 00:00:00 17,6 15,2 29 16 W 1017,2 -
12.08.2020 23:00:00 17,5 15,1 29 16 W 1016,8 12
12.08.2020 22:00:00 17,0 15,4 34 18 W 1016,2 -
12.08.2020 21:00:00 16,9 16,6 29 16 W 1015,7 -
12.08.2020 20:00:00 16,8 16,8 28 15 W 1015,4 7
12.08.2020 19:00:00 17,1 17,1 35 19 W 1014,6 -
12.08.2020 18:00:00 17,2 17,2 34 18 W 1013,9 -
12.08.2020 17:00:00 17,4 17,4 37 20 W 1013,4 2,0
12.08.2020 16:00:00 18,0 18,0 31 17 W 1012,7 -
12.08.2020 15:00:00 18,2 18,2 18 10 ZW 1012,6 -
12.08.2020 14:00:00 18,8 18,8 16 9 ZW 1012,1 15
12.08.2020 13:00:00 19,3 19,3 13 7 ZW 1012,0 -
12.08.2020 12:00:00 19,0 19,0 2 1 Z 1012,0 -
12.08.2020 11:00:00 18,9 18,9 4 2 W 1012,0 9
12.08.2020 10:00:00 19,1 19,1 5 3 WZW 1011,8 -
12.08.2020 09:00:00 18,5 18,5 11 6 ZW 1011,3 -
12.08.2020 08:00:00 18,4 18,4 9 5 ZW 1011,4 12
12.08.2020 07:00:00 18,7 18,7 11 6 W 1011,3 -
12.08.2020 06:00:00 18,9 18,9 11 6 W 1011,2 -
12.08.2020 05:00:00 18,9 18,9 8 4 W 1011,9 -
12.08.2020 04:00:00 19,0 19,0 13 7 ZW 1012,0 -
12.08.2020 03:00:00 19,3 19,3 5 3 ZW 1012,8 -
12.08.2020 02:00:00 19,3 19,3 9 5 WZW 1013,1 -
12.08.2020 01:00:00 19,6 19,6 8 4 ZW 1013,3 -
12.08.2020 00:00:00 19,7 19,7 8 4 WZW 1013,9 -
11.08.2020 23:00:00 19,8 19,8 8 4 WZW 1013,5 10
11.08.2020 22:00:00 19,9 19,9 0 0 N 1012,9 -
11.08.2020 21:00:00 20,2 20,2 0 0 N 1011,9 -
11.08.2020 20:00:00 20,0 20,0 5 3 NO 1012,5 5
11.08.2020 19:00:00 20,0 20,0 31 17 ZW 1010,3 -
11.08.2020 18:00:00 19,7 19,7 13 7 ZW 1012,4 -
11.08.2020 17:00:00 20,1 20,1 5 3 ZO 1013,7 3,0
11.08.2020 16:00:00 21,3 20,3 13 7 OZO 1013,6 -
11.08.2020 15:00:00 21,9 20,5 5 3 N 1012,4 -
11.08.2020 14:00:00 22,0 19,2 5 3 NNW 1012,9 28
11.08.2020 13:00:00 21,6 19,9 5 3 N 1012,5 -
11.08.2020 12:00:00 21,4 20,4 8 4 NW 1012,7 -
11.08.2020 11:00:00 21,3 20,1 5 3 NW 1012,5 18
11.08.2020 10:00:00 20,9 19,2 5 3 ZW 1012,7 -
11.08.2020 09:00:00 19,9 19,4 5 3 O 1012,4 -
11.08.2020 08:00:00 19,2 18,9 4 2 ZZW 1012,5 20
11.08.2020 07:00:00 19,1 19,1 0 0 N 1012,3 -
11.08.2020 06:00:00 19,0 19,0 4 2 ZW 1012,6 -
11.08.2020 05:00:00 19,2 19,2 8 4 ZW 1012,4 -
11.08.2020 04:00:00 19,2 19,2 8 4 WZW 1012,8 -
11.08.2020 03:00:00 19,1 19,1 5 3 ZW 1013,4 -
11.08.2020 02:00:00 19,2 19,2 0 0 N 1013,9 -
11.08.2020 01:00:00 19,3 19,3 8 4 W 1014,0 -
11.08.2020 00:00:00 19,4 19,2 8 4 WNW 1014,1 -
10.08.2020 23:00:00 19,5 19,5 13 7 W 1013,9 20
10.08.2020 22:00:00 19,6 19,4 11 6 WNW 1013,8 -
10.08.2020 21:00:00 20,1 19,4 11 6 WNW 1013,6 -
10.08.2020 20:00:00 20,4 18,7 11 6 WNW 1013,3 20
10.08.2020 19:00:00 20,4 19,7 13 7 WNW 1013,5 -
10.08.2020 18:00:00 20,7 18,7 16 9 WNW 1013,2 -
10.08.2020 17:00:00 21,1 19,4 15 8 WNW 1013,6 15
10.08.2020 16:00:00 20,6 19,4 18 10 WNW 1013,8 -
10.08.2020 15:00:00 20,8 18,8 18 10 WNW 1013,5 -
10.08.2020 14:00:00 21,1 19,9 13 7 NW 1013,5 15
10.08.2020 13:00:00 21,3 19,2 11 6 WNW 1013,5 -
10.08.2020 12:00:00 20,9 18,2 13 7 W 1013,7 -
10.08.2020 11:00:00 20,3 18,6 11 6 W 1013,8 15
10.08.2020 10:00:00 19,6 18,4 9 5 W 1013,9 -
10.08.2020 09:00:00 19,0 18,8 8 4 WZW 1013,8 -
10.08.2020 08:00:00 18,9 18,4 8 4 WZW 1013,6 12
10.08.2020 07:00:00 19,0 18,2 4 2 WZW 1013,5 -
10.08.2020 06:00:00 19,1 17,6 8 4 ZW 1013,4 -
10.08.2020 05:00:00 19,2 17,6 8 4 WZW 1013,7 -
10.08.2020 04:00:00 19,2 18,4 13 7 W 1014,1 -
10.08.2020 03:00:00 19,1 18,5 11 6 W 1014,4 -
10.08.2020 02:00:00 19,1 17,9 11 6 W 1014,8 -
10.08.2020 01:00:00 19,0 17,8 13 7 W 1015,1 -
10.08.2020 00:00:00 19,2 17,9 13 7 W 1015,5 -
09.08.2020 23:00:00 19,4 18,4 11 6 W 1015,8 15
09.08.2020 22:00:00 19,3 19,3 13 7 WNW 1015,2 -
09.08.2020 21:00:00 19,7 19,7 0 0 N 1015,1 -
09.08.2020 20:00:00 19,7 19,7 13 7 NW 1015,0 12
09.08.2020 19:00:00 21,1 19,6 9 5 WNW 1015,1 -
09.08.2020 18:00:00 21,0 19,3 11 6 WNW 1015,2 -
09.08.2020 17:00:00 21,9 19,3 16 9 W 1015,5 25
09.08.2020 16:00:00 22,0 20,0 13 7 WNW 1015,6 -
09.08.2020 15:00:00 21,8 19,4 15 8 WNW 1015,9 -
09.08.2020 14:00:00 21,8 19,8 11 6 NW 1016,2 25
09.08.2020 13:00:00 22,0 19,2 9 5 NW 1016,4 -
09.08.2020 12:00:00 20,7 19,5 8 4 NW 1016,7 -
09.08.2020 11:00:00 20,3 19,1 5 3 WNW 1016,8 15
09.08.2020 10:00:00 20,4 19,1 8 4 W 1016,7 -
09.08.2020 09:00:00 19,3 19,3 4 2 ZW 1017,1 -
09.08.2020 08:00:00 19,0 19,0 5 3 WZW 1016,9 8
09.08.2020 07:00:00 19,1 19,1 0 0 N 1016,9 -
09.08.2020 06:00:00 19,1 19,0 0 0 N 1017,2 -
09.08.2020 05:00:00 19,1 19,1 2 1 ZZO 1017,7 -
09.08.2020 04:00:00 18,9 18,9 0 0 N 1017,9 -
09.08.2020 03:00:00 18,8 18,8 0 0 N 1017,9 -
09.08.2020 02:00:00 18,6 18,6 0 0 N 1018,5 -
09.08.2020 01:00:00 18,3 18,3 4 2 NNW 1018,6 -
09.08.2020 00:00:00 18,6 18,6 4 2 ZZW 1019,2 -
08.08.2020 23:00:00 19,0 19,0 9 5 O 1020,2 15
08.08.2020 22:00:00 19,0 18,5 8 4 O 1019,4 -
08.08.2020 21:00:00 20,3 19,0 9 5 ONO 1019,0 -
08.08.2020 20:00:00 21,2 19,5 9 5 NO 1019,0 25
08.08.2020 19:00:00 21,6 19,2 11 6 NO 1020,0 -
08.08.2020 18:00:00 22,6 19,0 13 7 O 1019,2 -
08.08.2020 17:00:00 22,3 19,4 16 9 O 1019,7 20
08.08.2020 16:00:00 23,5 19,0 18 10 O 1020,2 -
08.08.2020 15:00:00 23,3 19,6 16 9 O 1020,3 -
08.08.2020 14:00:00 21,6 20,2 9 5 NNO 1020,6 25
08.08.2020 13:00:00 21,5 20,2 9 5 N 1020,7 -
08.08.2020 12:00:00 22,1 19,5 8 4 N 1020,7 -
08.08.2020 11:00:00 21,2 18,9 5 3 NNW 1020,7 20
08.08.2020 10:00:00 20,1 18,8 8 4 ZW 1020,9 -
08.08.2020 09:00:00 18,1 18,1 11 6 ZZW 1021,0 -
08.08.2020 08:00:00 16,9 16,9 9 5 ZW 1021,1 15
08.08.2020 07:00:00 16,5 16,5 8 4 ZW 1021,0 -
08.08.2020 06:00:00 16,6 16,6 9 5 ZW 1020,9 -

tt = temperatuur
td = dauwpunt
ff = windsnelheid
dd = windrichting
ppp = luchtdruk
vv = zicht

Weerstations in de omgeving